x

8638863 - Chesapeake Bay Bridge Tunnel, Va (cbbv2) Weather Station

8:18pm - Fri 26th May 2017 All times are EDT. -4 hours from GMT.

  • Wind
    9mph, 11mph gusts
  • Sea Temp 67°f
  • Air Temp 72°f
  • Sea Pressure 1011mb
  • 8638863 - Chesapeake Bay Bridge Tunnel, Va
  • 8638863 - Chesapeake Bay Bridge Tunnel, Va

More Historic Weather Station data

Upgrade to MSW Pro to gain access to the past 30 days of data for over 8000 Wavebouys and Weather Stations around the globe.

Join Pro

Comparision Forecast

View Surf forecast
   
Fri 05/26 8:18pm 9 11 mph 1011mb 67f 72f
8:12pm 11 11 mph 1011mb 67f 73f
8:06pm 11 14 mph 1010.9mb 67f 73f
8:00pm 14 15 mph 1010.8mb 67f 74f
7:54pm 14 15 mph 1010.7mb 67f 74f
7:48pm 11 14 mph 1010.8mb 67f 74f
7:42pm 13 14 mph 1010.7mb 67f 74f
7:36pm 13 14 mph 1010.6mb 67f 74f
7:30pm 13 14 mph 1010.5mb 67f 73f
7:24pm 14 16 mph 1010.5mb 67f 74f
7:18pm 16 17 mph 1010.4mb 67f 74f
7:12pm 17 17 mph 1010.3mb 67f 74f
7:06pm 16 17 mph 1010.2mb 67f 74f
7:00pm 15 16 mph 1010.1mb 67f 74f
6:54pm 14 15 mph 1010mb 67f 74f
6:48pm 15 16 mph 1010mb 67f 74f
6:42pm 15 16 mph 1010mb 67f 74f
6:36pm 15 16 mph 1009.9mb 67f 74f
6:30pm 15 16 mph 1009.8mb 67f 74f
6:24pm 15 16 mph 1009.7mb 67f 74f
6:18pm 15 17 mph 1009.7mb 67f 74f
6:12pm 16 17 mph 1009.7mb 68f 74f
6:06pm 14 16 mph 1009.6mb 68f 73f
6:00pm 15 18 mph 1009.5mb 67f 74f
5:48pm 15 17 mph 1009.6mb 67f 74f
5:42pm 14 16 mph 1009.5mb 67f 74f
5:36pm 15 17 mph 1009.5mb 67f 74f
5:30pm 15 17 mph 1009.5mb 67f 74f
5:24pm 15 17 mph 1009.4mb 67f 74f
5:18pm 17 18 mph 1009.5mb 67f 74f
5:12pm 17 20 mph 1009.5mb 67f 74f
5:06pm 18 20 mph 1009.5mb 67f 74f
5:00pm 18 21 mph 1009.3mb 67f 74f
4:54pm 18 20 mph 1009.3mb 67f 74f
4:48pm 18 21 mph 1009.2mb 67f 74f
4:42pm 20 22 mph 1009.1mb 67f 74f
4:36pm 17 20 mph 1009.2mb 67f 74f
4:30pm 17 18 mph 1009.1mb 67f 74f
4:24pm 16 18 mph 1009mb 67f 74f
4:18pm 16 17 mph 1009mb 67f 74f
4:12pm 16 18 mph 1009mb 67f 74f
4:06pm 17 21 mph 1008.9mb 68f 74f
4:00pm 17 18 mph 1009mb 68f 74f
3:54pm 17 20 mph 1009mb 68f 74f
3:48pm 18 23 mph 1008.9mb 68f 74f
3:42pm 17 18 mph 1008.9mb 68f 74f
3:36pm 16 17 mph 1008.9mb 68f 74f
3:30pm 16 17 mph 1008.8mb 68f 74f
3:24pm 16 17 mph 1008.8mb 67f 74f
3:18pm 15 16 mph 1008.8mb 67f 74f
3:12pm 15 17 mph 1008.8mb 67f 74f
3:06pm 15 17 mph 1008.9mb 67f 74f
3:00pm 16 17 mph 1008.9mb 67f 73f
2:54pm 16 20 mph 1009mb 67f 74f
2:48pm 17 20 mph 1008.9mb 67f 74f
2:42pm 16 18 mph 1009.1mb 67f 73f
2:36pm 16 17 mph 1009mb 67f 73f
2:30pm 16 17 mph 1009mb 67f 73f
2:24pm 16 20 mph 1009mb 67f 73f
2:18pm 17 18 mph 1009mb 67f 73f
2:12pm 17 18 mph 1008.9mb 67f 73f
2:06pm 16 18 mph 1009mb 67f 73f
2:00pm 16 18 mph 1009mb 67f 73f
1:54pm 17 20 mph 1009mb 67f 73f
1:48pm 16 18 mph 1009.1mb 67f 72f
1:42pm 17 20 mph 1009.1mb 67f 72f
1:36pm 16 18 mph 1009.2mb 67f 72f
1:30pm 17 18 mph 1009.2mb 67f 72f
1:24pm 16 18 mph 1009.2mb 67f 72f
1:18pm 17 20 mph 1009.3mb 67f 72f
1:12pm 17 18 mph 1009.2mb 67f 73f
1:06pm 15 17 mph 1009.2mb 67f 72f
1:00pm 16 17 mph 1009.2mb 67f 72f
12:54pm 16 17 mph 1009.2mb 67f 72f
12:48pm 16 17 mph 1009.2mb 67f 72f
12:42pm 15 17 mph 1009.1mb 67f 72f
12:36pm 17 20 mph 1009.2mb 66f 72f
12:30pm 17 18 mph 1009.3mb 66f 71f
12:24pm 16 17 mph 1009.2mb 66f 71f
12:18pm 14 20 mph 1009.2mb 66f 71f
12:12pm 17 20 mph 1009.1mb 66f 71f
12:06pm 17 20 mph 1009.2mb 66f 71f
12:00pm 18 21 mph 1009.2mb 66f 70f
11:54am 18 20 mph 1009.2mb 66f 71f
11:48am 17 18 mph 1009.1mb 66f 70f
11:42am 17 20 mph 1009.1mb 66f 70f
11:36am 17 18 mph 1009.1mb 66f 70f
11:30am 17 20 mph 1009.1mb 66f 70f
11:24am 17 20 mph 1009mb 66f 70f
11:18am 18 21 mph 1009mb 66f 70f
11:12am 17 21 mph 1009mb 66f 70f
11:06am 17 20 mph 1009mb 66f 69f
11:00am 18 21 mph 1008.9mb 66f 69f
10:54am 18 22 mph 1008.9mb 66f 69f
10:48am 20 23 mph 1008.9mb 66f 69f
10:42am 20 22 mph 1008.9mb 66f 69f
10:36am 21 24 mph 1008.9mb 66f 69f
10:30am 21 23 mph 1008.8mb 66f 69f
10:24am 18 24 mph 1008.9mb 66f 69f
10:18am 22 26 mph 1008.8mb 66f 69f
10:12am 23 24 mph 1008.7mb 66f 69f
10:06am 22 25 mph 1008.6mb 66f 69f
10:00am 23 26 mph 1008.6mb 66f 69f
9:54am 21 25 mph 1008.6mb 66f 68f
9:48am 22 24 mph 1008.5mb 66f 68f
9:42am 23 26 mph 1008.5mb 66f 68f
9:36am 22 26 mph 1008.4mb 66f 68f
9:30am 23 26 mph 1008.5mb 66f 68f
9:24am 22 25 mph 1008.6mb 66f 67f
9:18am 23 25 mph 1008.4mb 66f 67f
9:12am 22 26 mph 1008.3mb 66f 67f
9:06am 23 29 mph 1008.3mb 66f 67f
9:00am 23 26 mph 1008.2mb 66f 67f
8:54am 25 30 mph 1008.1mb 66f 67f
8:48am 25 28 mph 1008.1mb 66f 67f
8:42am 23 31 mph 1008.1mb 66f 67f
8:36am 24 30 mph 1008mb 66f 66f
8:30am 26 30 mph 1007.8mb 66f 66f
8:24am 25 29 mph 1007.9mb 66f 66f
8:18am 24 29 mph 1007.8mb 66f 66f
8:12am 26 30 mph 1007.8mb 66f 66f
8:06am 26 29 mph 1007.7mb 66f 66f
8:00am 26 30 mph 1007.7mb 66f 66f
7:54am 24 30 mph 1007.6mb 66f 66f
7:48am 26 30 mph 1007.5mb 66f 65f
7:42am 24 29 mph 1007.5mb 66f 65f
7:36am 24 30 mph 1007.4mb 66f 65f
7:30am 25 29 mph 1007.3mb 66f 65f
7:24am 24 29 mph 1007.2mb 66f 65f
7:12am 23 28 mph 1007mb 66f 65f
7:06am 22 26 mph 1006.9mb 66f 65f
7:00am 24 26 mph 1006.7mb 66f 65f
6:54am 23 28 mph 1006.8mb 66f 65f
6:48am 22 28 mph 1006.8mb 66f 65f
6:42am 24 29 mph 1006.6mb 66f 65f
6:36am 22 25 mph 1006.5mb 66f 65f
6:30am 22 25 mph 1006.4mb 66f 64f
6:24am 24 26 mph 1006.4mb 66f 64f
6:18am 23 26 mph 1006.2mb 66f 64f
6:12am 22 25 mph 1006.3mb 66f 64f
6:06am 22 25 mph 1006.2mb 66f 64f
6:00am 23 25 mph 1006.1mb 66f 64f
5:54am 21 24 mph 1006.1mb 66f 64f
5:48am 21 25 mph 1006mb 66f 64f
5:42am 24 26 mph 1005.8mb 66f 64f
5:36am 24 26 mph 1005.6mb 66f 64f
5:30am 25 29 mph 1005.5mb 66f 64f
5:24am 23 25 mph 1005.4mb 66f 64f
5:18am 21 23 mph 1005.4mb 66f 64f
5:12am 20 25 mph 1005.4mb 66f 64f
5:06am 20 24 mph 1005.4mb 66f 64f
5:00am 20 24 mph 1005.3mb 66f 64f
4:48am 23 28 mph 1005.1mb 66f 65f
4:42am 25 29 mph 1004.9mb 66f 65f
4:36am 24 28 mph 1004.7mb 66f 65f
4:30am 23 28 mph 1004.6mb 66f 65f
4:24am 25 29 mph 1004.7mb 66f 65f
4:18am 26 30 mph 1004.6mb 66f 65f
4:12am 25 30 mph 1004.6mb 66f 65f
4:06am 24 30 mph 1004.5mb 66f 65f
4:00am 26 29 mph 1004.4mb 67f 65f
3:54am 25 30 mph 1004.3mb 67f 65f
3:48am 25 29 mph 1004.4mb 67f 65f
3:42am 23 29 mph 1004.4mb 66f 65f
3:36am 23 29 mph 1004.4mb 67f 65f
3:30am 23 26 mph 1004.3mb 67f 65f
3:24am 23 28 mph 1004.3mb 67f 65f
3:18am 24 28 mph 1004.3mb 67f 65f
3:12am 23 28 mph 1004.3mb 67f 65f
3:06am 24 26 mph 1004.3mb 66f 65f
3:00am 23 29 mph 1004.1mb 66f 65f
2:48am 23 28 mph 1004mb 66f 65f
2:42am 24 30 mph 1004mb 66f 65f
2:36am 24 28 mph 1003.9mb 66f 65f
2:30am 23 29 mph 1003.8mb 66f 65f
2:24am 24 31 mph 1003.8mb 66f 65f
2:18am 25 31 mph 1003.7mb 66f 65f
2:12am 23 29 mph 1003.7mb 66f 65f
2:06am 24 28 mph 1003.7mb 66f 65f
2:00am 26 30 mph 1003.7mb 66f 65f
1:54am 24 29 mph 1003.6mb 66f 65f
1:48am 25 29 mph 1003.5mb 66f 65f
1:42am 23 29 mph 1003.5mb 66f 64f
1:36am 23 26 mph 1003.4mb 65f 65f
1:30am 22 26 mph 1003.4mb 65f 65f
1:24am 22 26 mph 1003.3mb 65f 65f
1:18am 23 28 mph 1003.3mb 65f 65f
1:12am 23 26 mph 1003.2mb 65f 65f
1:06am 20 23 mph 1003.2mb 65f 65f
1:00am 22 26 mph 1003.1mb 65f 65f
12:54am 22 28 mph 1003.1mb 65f 65f
12:48am 22 24 mph 1003.1mb 65f 65f
12:42am 22 24 mph 1003mb 65f 65f
12:36am 20 22 mph 1003mb 65f 65f
12:30am 20 24 mph 1003mb 65f 65f
12:24am 18 22 mph 1003mb 65f 65f
12:18am 20 22 mph 1003mb 65f 65f
12:12am 18 21 mph 1002.9mb 66f 64f
12:06am 18 23 mph 1002.9mb 66f 64f
12:00am 20 22 mph 1002.9mb - 64f
Thu 05/25 11:54pm 18 22 mph 1002.9mb - 64f
11:48pm 20 22 mph 1002.9mb - 64f
11:42pm 21 24 mph 1002.9mb - 64f
11:36pm 18 23 mph 1002.8mb - 64f
11:30pm 21 24 mph 1002.7mb - 65f
11:24pm 22 29 mph 1002.6mb - 65f
11:18pm 24 28 mph 1002.4mb - 65f
11:12pm 25 29 mph 1002.4mb - 65f
11:06pm 25 31 mph 1002.4mb - 65f
11:00pm 25 30 mph 1002.4mb - 65f
10:54pm 24 30 mph 1002.3mb - 65f
10:48pm 25 33 mph 1002.2mb - 65f
10:42pm 24 29 mph 1002.1mb - 66f
10:36pm 23 30 mph 1001.9mb - 66f
10:30pm 23 29 mph 1001.7mb - 65f
10:24pm 24 30 mph 1001.6mb - 65f
10:18pm 23 29 mph 1001.5mb - 65f
10:12pm 24 31 mph 1001.4mb - 66f
10:06pm 23 28 mph 1001.2mb - 66f
10:00pm 26 30 mph 1001.1mb - 66f
9:54pm 24 29 mph 1001mb - 66f
9:48pm 23 26 mph 1001mb - 66f
9:42pm 23 26 mph 1000.9mb - 66f
9:36pm 24 29 mph 1000.8mb - 66f
9:30pm 24 30 mph 1000.7mb - 66f
9:24pm 24 26 mph 1000.6mb - 66f
9:18pm 22 28 mph 1000.5mb - 66f
9:12pm 26 31 mph 1000.4mb - 67f
9:06pm 24 30 mph 1000.4mb - 67f
9:00pm 28 31 mph 1000.3mb - 67f
8:54pm 28 33 mph 1000.2mb - 67f
8:48pm 26 30 mph 1000.1mb - 66f
8:42pm 24 26 mph 1000.2mb - 66f
8:36pm 21 28 mph 1000.1mb - 65f
8:30pm 17 21 mph 1000.3mb - 64f
8:24pm 21 23 mph 1000.4mb - 65f
8:18pm 18 23 mph 1000.3mb - 64f
8:12pm 17 21 mph 1000.3mb - 64f
8:06pm 15 18 mph 1000.2mb - 63f
8:00pm 16 18 mph 1000.2mb - 63f
7:54pm 16 20 mph 1000.3mb - 63f
7:48pm 16 17 mph 1000.3mb - 63f
7:42pm 15 17 mph 1000.4mb - 63f
7:36pm 15 17 mph 1000.4mb - 63f
7:30pm 14 17 mph 1000.4mb - 63f
7:24pm 16 17 mph 1000.4mb - 63f
7:18pm 13 15 mph 1000.4mb - 63f
7:12pm 10 11 mph 1000.2mb - 63f
7:06pm 10 13 mph 1000.1mb - 63f
7:00pm 9 11 mph 1000mb - 63f
6:54pm 9 11 mph 1000mb - 62f
6:48pm 10 13 mph 1000mb - 62f
6:42pm 11 13 mph 1000mb - 62f
6:36pm 9 10 mph 1000.1mb - 61f
6:30pm 8 10 mph 1000mb - 59f
6:24pm 9 16 mph 999.9mb - 59f
6:18pm 15 21 mph 1000.2mb - 59f
6:12pm 21 25 mph 1000.1mb - 60f
6:06pm 23 32 mph 999.7mb - 59f
6:00pm 33 43 mph 999.5mb - 58f
5:54pm 38 44 mph 999.3mb - 60f
5:48pm 39 48 mph 999mb - 67f
5:42pm 32 39 mph 998.6mb 67f 70f
5:36pm 24 32 mph 997.6mb 67f 75f
5:30pm 29 32 mph 997.2mb 67f 76f
5:24pm 20 25 mph 997.3mb 67f 75f
5:18pm 22 26 mph 997.3mb 67f 74f
5:12pm 22 26 mph 997.2mb 68f 75f
5:06pm 20 28 mph 997.2mb 68f 75f
5:00pm 20 29 mph 997.2mb 68f 75f
4:54pm 22 29 mph 997.1mb 67f 76f
4:48pm 25 29 mph 997.3mb 67f 76f
4:42pm 11 15 mph 997.7mb 67f 73f
4:36pm 11 14 mph 997.7mb 67f 71f
4:30pm 13 15 mph 997.7mb 68f 70f
4:24pm 11 18 mph 997.8mb 68f 70f
4:18pm 16 18 mph 997.9mb 68f 70f
4:12pm 14 18 mph 998.1mb 68f 71f
4:06pm 11 13 mph 998mb 67f 69f
4:00pm 9 10 mph 997.8mb 68f 69f
3:54pm 7 9 mph 998mb 68f 69f
3:48pm 7 8 mph 997.7mb 68f 69f
3:42pm 7 9 mph 997.6mb 68f 70f
3:36pm 7 9 mph 997.7mb 68f 70f
3:30pm 6 8 mph 997.7mb 68f 69f
3:24pm 3 7 mph 997.8mb 68f 70f
3:18pm 7 7 mph 997.9mb 68f 70f
3:12pm 2 9 mph 998.3mb 68f 70f
3:06pm 6 11 mph 998.3mb 68f 70f
3:00pm 6 14 mph 998.5mb 68f 69f
2:54pm 11 14 mph 998.5mb 68f 69f
2:48pm 8 10 mph 998.7mb 68f 69f
2:42pm 7 10 mph 998.8mb 68f 69f
2:36pm 7 11 mph 998.7mb 68f 70f
2:30pm 6 11 mph 998.7mb 68f 70f
2:24pm 7 10 mph 998.7mb 68f 69f
2:18pm 9 13 mph 998.9mb 68f 69f
2:12pm 9 11 mph 999mb 67f 70f
2:06pm 6 13 mph 999mb 67f 71f
2:00pm 7 11 mph 999.2mb 67f 71f
1:54pm 5 6 mph 999.3mb 67f 72f
1:48pm 1 2 mph 999.3mb 67f 73f
1:42pm 1 2 mph 999.4mb 67f 72f
1:36pm 1 5 mph 999.4mb 67f 71f
1:30pm 5 5 mph 999.5mb 67f 71f
1:24pm 6 8 mph 999.5mb 67f 71f
1:18pm 8 8 mph 999.7mb 67f 72f
1:12pm 7 8 mph 999.5mb 67f 71f
1:06pm 7 7 mph 999.7mb 67f 71f
1:00pm 6 7 mph 999.7mb 67f 71f
12:54pm 7 8 mph 999.7mb 67f 71f
12:48pm 7 8 mph 1000mb 67f 70f
12:42pm 7 8 mph 999.9mb 67f 70f
12:36pm 7 11 mph 1000mb 67f 70f
12:30pm 13 14 mph 1000mb 67f 70f
12:24pm 13 18 mph 1000mb 67f 69f
12:18pm 16 18 mph 999.7mb 64f 70f
12:12pm 15 17 mph 999.8mb 63f 69f
12:06pm 14 17 mph 1000.1mb 63f 69f
12:00pm 16 17 mph 1000.1mb 63f 69f
11:54am 15 17 mph 999.8mb 63f 69f
11:48am 11 15 mph 999.9mb 63f 69f
11:42am 15 17 mph 1000mb 64f 69f
11:36am 15 18 mph 999.9mb 64f 69f
11:30am 17 18 mph 1000.1mb 63f 69f
11:24am 10 14 mph 1000.3mb 63f 68f
11:18am 15 18 mph 1000.3mb 63f 69f
11:12am 18 20 mph 1000.2mb 64f 69f
11:06am 18 21 mph 1000.2mb 64f 69f
11:00am 17 20 mph 1000.2mb 64f 69f
10:54am 15 17 mph 1000.2mb 64f 69f
10:48am 11 14 mph 1000.1mb 64f 69f
10:42am 8 14 mph 1000.1mb 64f 69f
10:36am 14 17 mph 1000mb 64f 73f
10:30am 14 15 mph 999.8mb 64f 72f
10:24am 14 16 mph 999.7mb 64f 73f
10:18am 14 16 mph 999.8mb 64f 72f
10:12am 15 17 mph 999.8mb 64f 72f
10:06am 15 18 mph 999.8mb 64f 72f
10:00am 14 18 mph 999.7mb 64f 71f
9:54am 17 23 mph 999.6mb 64f 72f
9:48am 16 18 mph 999.6mb 64f 72f
9:42am 14 17 mph 999.7mb 64f 71f
9:36am 16 18 mph 999.7mb 64f 71f
9:30am 15 20 mph 999.8mb 64f 71f
9:24am 18 21 mph 999.7mb 64f 71f
9:18am 17 21 mph 999.8mb 64f 71f
9:12am 21 24 mph 999.7mb 64f 72f
9:06am 21 24 mph 999.7mb 64f 71f
9:00am 16 20 mph 999.6mb 64f 71f
8:54am 13 17 mph 999.5mb 64f 71f
8:48am 15 18 mph 999.5mb 65f 71f
8:42am 17 22 mph 999.4mb 65f 71f
8:36am 16 18 mph 999.3mb 64f 71f
8:30am 15 20 mph 999.3mb 64f 71f
8:24am 14 20 mph 999.2mb 64f 71f
8:18am 16 21 mph 999.3mb 64f 70f
8:12am 16 18 mph 999.3mb 64f 70f
8:06am 14 16 mph 999.4mb 65f 70f
8:00am 14 16 mph 999.2mb 64f 70f
7:54am 15 17 mph 999.1mb 64f 70f
7:48am 14 17 mph 999.1mb 64f 70f
7:42am 13 15 mph 999.1mb 64f 70f
7:36am 13 16 mph 999mb 64f 70f
7:30am 13 16 mph 999mb 65f 70f
7:24am 14 17 mph 999.1mb 65f 70f
7:18am 13 16 mph 999mb 64f 70f
7:12am 14 17 mph 999mb 65f 70f
7:06am 14 16 mph 998.9mb 65f 70f
7:00am 11 14 mph 999mb 65f 69f
6:54am 11 14 mph 999.1mb 65f 69f
6:48am 14 16 mph 999.1mb 65f 70f
6:42am 15 17 mph 999mb 65f 70f
6:36am 11 15 mph 999mb 65f 69f
6:30am 14 15 mph 999.2mb 65f 70f
6:24am 13 15 mph 999.2mb 66f 70f
6:18am 14 17 mph 999.1mb 66f 70f
6:12am 15 18 mph 999.2mb 67f 70f
6:06am 14 16 mph 999mb 67f 70f
6:00am 13 17 mph 998.9mb 67f 70f
5:54am 15 20 mph 998.9mb 67f 70f
5:48am 15 20 mph 998.7mb 67f 70f
5:42am 16 22 mph 998.7mb 67f 70f
5:36am 16 18 mph 998.9mb 67f 70f
5:30am 14 18 mph 998.8mb 67f 70f
5:24am 13 20 mph 998.8mb 67f 69f
5:18am 15 18 mph 998.8mb 67f 69f
5:12am 16 20 mph 998.7mb 67f 69f
5:06am 17 22 mph 998.7mb 67f 70f
5:00am 18 22 mph 998.8mb 67f 69f
4:54am 15 20 mph 998.9mb 67f 69f
4:48am 16 20 mph 998.8mb 67f 69f
4:42am 14 21 mph 999mb 67f 69f
4:36am 16 21 mph 999.1mb 67f 69f
4:30am 15 20 mph 998.7mb 67f 69f
4:24am 14 18 mph 998.5mb 67f 69f
4:18am 15 17 mph 998.8mb 67f 69f
4:12am 13 17 mph 998.8mb 67f 69f
4:06am 14 17 mph 998.6mb 67f 68f
4:00am 15 17 mph 998.8mb 67f 68f
3:54am 15 17 mph 999mb 67f 68f
3:48am 16 20 mph 999.3mb 67f 68f
3:42am 17 20 mph 999.5mb 67f 67f
3:36am 14 16 mph 999.5mb 66f 67f
3:30am 13 15 mph 999.6mb 66f 67f
3:24am 11 14 mph 999.6mb 66f 67f
3:18am 9 14 mph 999.6mb 66f 66f
3:12am 11 15 mph 999.6mb 66f 66f
3:06am 8 13 mph 999.6mb 66f 66f
3:00am 10 15 mph 999.7mb 66f 66f
2:54am 13 15 mph 999.9mb 66f 66f
2:48am 11 14 mph 999.8mb 66f 66f
2:42am 10 15 mph 1000mb 66f 66f
2:36am 13 15 mph 1000.1mb 66f 66f
2:30am 14 17 mph 1000.2mb 66f 66f
2:24am 11 16 mph 1000.2mb 66f 66f
2:18am 13 15 mph 1000.4mb 66f 66f
2:12am 9 14 mph 1000.6mb 66f 66f
2:06am 9 14 mph 1000.6mb 66f 66f
2:00am 7 14 mph 1000.8mb 65f 66f
1:54am 7 15 mph 1000.9mb 65f 65f
1:48am 10 16 mph 1001.1mb 64f 65f
1:42am 11 17 mph 1001.4mb 64f 65f
1:36am 9 14 mph 1001.7mb 64f 65f
1:30am 11 16 mph 1001.9mb 64f 65f
1:24am 10 14 mph 1002.1mb 64f 64f
1:18am 11 14 mph 1002.2mb 63f 63f
1:12am 13 14 mph 1002.3mb 63f 63f
1:06am 10 16 mph 1002.4mb 63f 63f
1:00am 14 17 mph 1002.4mb 64f 62f
12:54am 15 17 mph 1002.5mb 64f 62f
12:48am 16 17 mph 1002.6mb 64f 62f
12:42am 16 17 mph 1002.7mb 65f 62f
12:36am 14 14 mph 1003mb 64f 62f
12:30am 8 18 mph 1003.4mb 64f 62f
12:24am 20 22 mph 1003.3mb 64f 61f
12:18am 17 21 mph 1003.4mb 64f 61f
12:12am 13 17 mph 1003.6mb 63f 61f
12:06am 15 20 mph 1003.8mb 63f 61f
12:00am 17 22 mph 1003.7mb 63f 61f
Wed 05/24 11:54pm 20 22 mph 1003.8mb 63f 61f
11:48pm 20 22 mph 1003.8mb 63f 61f
11:42pm 20 22 mph 1004.1mb 63f 61f
11:36pm 18 22 mph 1004.3mb 63f 60f
11:30pm 18 22 mph 1004.4mb 64f 61f
11:24pm 17 22 mph 1004.7mb 64f 60f
11:18pm 18 22 mph 1004.8mb 64f 60f
11:12pm 18 21 mph 1004.8mb 64f 60f
11:06pm 17 21 mph 1004.8mb 64f 60f
11:00pm 17 22 mph 1004.9mb 64f 60f
10:54pm 20 24 mph 1004.8mb 64f 60f
10:48pm 22 24 mph 1004.9mb 64f 60f
10:42pm 20 24 mph 1005.1mb 64f 60f
10:36pm 22 24 mph 1004.7mb 64f 60f
10:30pm 22 26 mph 1004.9mb 64f 60f
10:24pm 24 26 mph 1004.8mb 64f 60f
10:18pm 21 26 mph 1005.2mb 64f 60f
10:12pm 18 24 mph 1005.5mb 64f 60f
10:06pm 15 22 mph 1005.7mb 65f 60f
10:00pm 14 23 mph 1005.9mb 65f 60f
9:54pm 20 26 mph 1005.6mb 65f 60f
9:48pm 24 29 mph 1005.2mb 65f 60f
9:42pm 25 29 mph 1004.9mb 65f 60f
9:36pm 25 29 mph 1004.9mb 65f 60f
9:30pm 25 29 mph 1004.9mb 65f 60f
9:24pm 24 29 mph 1005.1mb 65f 60f
9:18pm 26 30 mph 1005mb 65f 60f
9:12pm 25 28 mph 1005mb 66f 60f
9:06pm 25 29 mph 1005.4mb 66f 60f
9:00pm 24 28 mph 1005.5mb 66f 60f
8:54pm 23 26 mph 1005.5mb 66f 60f
8:48pm 23 26 mph 1005.7mb 66f 60f
8:42pm 24 29 mph 1005.7mb 66f 60f
8:36pm 24 28 mph 1005.9mb 66f 59f
8:30pm 24 26 mph 1005.9mb 66f 60f
8:24pm 24 28 mph 1005.9mb 66f 59f
8:18pm 24 28 mph 1005.6mb 66f 59f
8:12pm 24 28 mph 1005.7mb 66f 59f
8:06pm 25 28 mph 1005.7mb 66f 59f
8:00pm 25 28 mph 1006mb 66f 59f
7:54pm 25 28 mph 1005.9mb 66f 60f
7:48pm 24 26 mph 1006mb 66f 59f
7:42pm 23 25 mph 1006.1mb 66f 59f
7:36pm 23 25 mph 1006.1mb 66f 60f
7:30pm 23 25 mph 1006.2mb 66f 59f
7:24pm 23 25 mph 1006.2mb 66f 60f
7:18pm 21 25 mph 1006mb 66f 59f
7:12pm 22 25 mph 1006.1mb 66f 59f
7:06pm 23 26 mph 1005.9mb 66f 59f
7:00pm 23 25 mph 1005.9mb 66f 60f
6:54pm 23 25 mph 1006mb 66f 59f
6:48pm 22 24 mph 1006.2mb 66f 60f
6:42pm 22 24 mph 1006.3mb 66f 59f
6:36pm 22 24 mph 1006.1mb 66f 60f
6:30pm 22 25 mph 1005.9mb 66f 59f
6:24pm 23 25 mph 1005.9mb 66f 59f
6:18pm 22 24 mph 1005.8mb 66f 59f
6:12pm 21 23 mph 1006.1mb 67f 60f
6:06pm 21 22 mph 1006.4mb 67f 60f
6:00pm 20 23 mph 1006.2mb 67f 60f
5:54pm 22 24 mph 1006.1mb 67f 60f
5:48pm 21 24 mph 1005.9mb 67f 60f
5:42pm 22 24 mph 1005.8mb 67f 60f
5:36pm 21 23 mph 1005.9mb 66f 60f
5:30pm 20 22 mph 1005.9mb 66f 60f
5:24pm 18 22 mph 1005.8mb 66f 60f
5:18pm 17 20 mph 1005.7mb 66f 60f
5:12pm 20 22 mph 1005.6mb 66f 60f
5:06pm 20 23 mph 1005.3mb 67f 61f
5:00pm 18 20 mph 1005.5mb 67f 60f
4:54pm 16 17 mph 1005.9mb 67f 61f
4:48pm 15 18 mph 1006mb 67f 61f
4:42pm 15 17 mph 1005.9mb 67f 60f
4:36pm 14 15 mph 1006.1mb 67f 61f
4:30pm 13 15 mph 1006.1mb 67f 61f
4:24pm 14 15 mph 1006mb 67f 61f
4:18pm 15 17 mph 1006mb 67f 61f
4:12pm 15 16 mph 1005.6mb 67f 61f
4:06pm 14 15 mph 1005.8mb 67f 61f
4:00pm 14 15 mph 1005.9mb 67f 61f
3:54pm 13 15 mph 1006mb 67f 61f
3:48pm 14 15 mph 1006.1mb 67f 61f
3:42pm 14 17 mph 1006.1mb 67f 61f
3:36pm 15 17 mph 1005.8mb 67f 61f
3:30pm 14 16 mph 1006.1mb 67f 61f
3:24pm 14 15 mph 1006.2mb 67f 61f
3:18pm 11 14 mph 1006.3mb 67f 61f
3:12pm 14 15 mph 1006.3mb 67f 61f
3:06pm 11 14 mph 1006.3mb 67f 61f
3:00pm 11 14 mph 1006.5mb 67f 61f
2:54pm 11 14 mph 1006.8mb 67f 61f
2:48pm 13 14 mph 1006.7mb 67f 61f
2:42pm 13 15 mph 1006.5mb 67f 61f
2:36pm 13 14 mph 1006.4mb 67f 61f
2:30pm 10 13 mph 1006.8mb 67f 61f
2:24pm 11 14 mph 1006.7mb 67f 61f
2:18pm 11 13 mph 1006.8mb 66f 61f
2:12pm 9 10 mph 1006.9mb 66f 61f
2:06pm 9 10 mph 1007mb 67f 61f
2:00pm 8 10 mph 1006.9mb 67f 61f
1:54pm 9 11 mph 1006.9mb 67f 61f
1:48pm 9 10 mph 1006.9mb 66f 61f
1:42pm 9 10 mph 1006.9mb 67f 61f
1:36pm 9 11 mph 1007mb 67f 61f
1:30pm 9 10 mph 1006.9mb 67f 61f
1:24pm 8 10 mph 1006.7mb 67f 61f
1:18pm 9 10 mph 1006.8mb 67f 61f
1:12pm 9 13 mph 1006.6mb 67f 61f
1:06pm 9 11 mph 1006.4mb 67f 61f
1:00pm 9 11 mph 1006.5mb 67f 61f
12:54pm 9 10 mph 1006.5mb 67f 61f
12:48pm 9 10 mph 1006.7mb 67f 61f
12:42pm 8 9 mph 1006.7mb 67f 61f
12:36pm 8 10 mph 1006.6mb 67f 61f
12:30pm 9 10 mph 1006.6mb 67f 61f
12:24pm 9 11 mph 1006.5mb 67f 61f
12:18pm 10 13 mph 1006.5mb 67f 61f
12:12pm 11 14 mph 1006.5mb 66f 61f
12:06pm 11 13 mph 1006.4mb 66f 60f
12:00pm 10 13 mph 1006.4mb 65f 60f
11:54am 10 11 mph 1006.5mb 65f 60f
11:48am 9 13 mph 1006.6mb 65f 60f
11:42am 10 13 mph 1006.5mb 65f 60f
11:36am 10 13 mph 1006.7mb 65f 60f
11:30am 10 13 mph 1006.7mb 65f 61f
11:24am 13 14 mph 1006.7mb 65f 60f
11:18am 13 14 mph 1006.5mb 65f 60f
11:12am 13 16 mph 1006.4mb 65f 60f
11:06am 15 17 mph 1006.1mb 65f 60f
11:00am 15 16 mph 1006.2mb 65f 60f
10:54am 15 17 mph 1006.3mb 65f 60f
10:48am 14 16 mph 1006.2mb 65f 60f
10:42am 14 16 mph 1006.4mb 65f 60f
10:36am 14 17 mph 1006.3mb 65f 61f
10:30am 15 16 mph 1006.4mb 65f 60f
10:24am 14 16 mph 1006.5mb 65f 60f
10:18am 14 16 mph 1006.4mb 65f 61f
10:12am 16 18 mph 1006.1mb 65f 60f
10:06am 17 20 mph 1005.8mb 65f 60f
10:00am 17 21 mph 1005.7mb 65f 60f
9:54am 17 21 mph 1005.4mb 65f 60f
9:48am 18 21 mph 1005.5mb 65f 60f
9:42am 20 22 mph 1005.6mb 65f 60f
9:36am 18 21 mph 1005.8mb 65f 60f
9:30am 16 20 mph 1005.8mb 65f 60f
9:24am 17 22 mph 1005.8mb 65f 60f
9:18am 17 20 mph 1005.6mb 65f 60f
9:12am 16 21 mph 1005.6mb 65f 60f
9:06am 18 21 mph 1005.7mb 66f 60f
9:00am 17 18 mph 1005.7mb 65f 60f
8:54am 17 20 mph 1005.7mb 66f 60f
8:48am 15 21 mph 1005.6mb 66f 60f
8:42am 16 21 mph 1005.6mb 66f 60f
8:36am 18 21 mph 1005.3mb 66f 60f
8:30am 15 22 mph 1005.4mb 66f 61f
8:24am 16 21 mph 1005.3mb 66f 60f
8:18am 17 20 mph 1005.3mb 65f 61f
8:12am 17 21 mph 1005.1mb 65f 61f
8:06am 17 21 mph 1005.2mb 65f 61f
8:00am 17 21 mph 1005.2mb 65f 61f
7:54am 16 18 mph 1005.3mb 66f 61f
7:48am 16 21 mph 1005.2mb 66f 61f
7:42am 20 22 mph 1004.9mb 66f 61f
7:36am 18 22 mph 1004.6mb 66f 61f
7:30am 17 21 mph 1004.6mb 66f 61f
7:24am 20 22 mph 1004.5mb 66f 61f
7:18am 17 22 mph 1004.5mb 66f 61f
7:12am 20 23 mph 1004.4mb 66f 61f
7:06am 20 22 mph 1004.4mb 66f 61f
7:00am 21 22 mph 1004.4mb 66f 61f
6:54am 18 24 mph 1004.5mb 66f 61f
6:48am 18 23 mph 1004.5mb 66f 61f
6:42am 21 23 mph 1004.2mb 66f 61f
6:36am 23 25 mph 1004.2mb 66f 61f
6:30am 20 23 mph 1004.3mb 66f 61f
6:24am 20 23 mph 1004.2mb 66f 61f
6:18am 22 24 mph 1004mb 66f 61f
6:12am 22 23 mph 1004.1mb 66f 61f
6:06am 17 21 mph 1004mb 66f 61f
6:00am 20 21 mph 1003.9mb 66f 61f
5:54am 18 22 mph 1004mb 66f 61f
5:48am 18 22 mph 1003.7mb 66f 61f
5:42am 18 20 mph 1003.8mb 66f 61f
5:36am 17 21 mph 1003.8mb 66f 61f
5:30am 17 21 mph 1003.8mb 66f 61f
5:24am 18 21 mph 1003.7mb 66f 61f
5:18am 15 21 mph 1003.7mb 66f 62f
5:12am 18 22 mph 1003.6mb 66f 61f
5:06am 16 21 mph 1003.6mb 67f 61f
5:00am 20 21 mph 1003.6mb 67f 61f
4:54am 17 20 mph 1003.4mb 67f 62f
4:48am 16 20 mph 1003.4mb 67f 62f
4:42am 18 21 mph 1003.4mb 67f 62f
4:36am 17 18 mph 1003.2mb 67f 62f
4:30am 15 18 mph 1003.3mb 67f 62f
4:24am 18 18 mph 1003.3mb 67f 61f
4:18am 17 20 mph 1003.2mb 67f 62f
4:12am 17 20 mph 1003.1mb 67f 61f
4:06am 14 17 mph 1003.2mb 67f 62f
4:00am 14 17 mph 1003.3mb 67f 62f
3:54am 15 18 mph 1003.3mb 67f 62f
3:48am 15 17 mph 1003.3mb 67f 62f
3:42am 14 17 mph 1003.5mb 67f 62f
3:36am 14 17 mph 1003.5mb 67f 62f
3:30am 16 18 mph 1003.5mb 67f 62f
3:24am 17 20 mph 1003.5mb 67f 62f
3:18am 16 21 mph 1003.5mb 67f 62f
3:12am 18 20 mph 1003.5mb 67f 62f
3:06am 18 21 mph 1003.2mb 67f 62f
3:00am 18 21 mph 1003.3mb 67f 62f
2:54am 18 21 mph 1003.5mb 67f 62f
2:48am 17 20 mph 1003.5mb - -
2:42am 20 22 mph 1003.5mb - -
2:36am 22 24 mph 1003.3mb - -
2:30am 17 18 mph 1003.5mb 67f 62f
2:24am 17 21 mph 1003.5mb 66f 62f
2:18am 18 21 mph 1003.4mb 66f 61f
2:12am 18 21 mph 1003.5mb 66f 62f
2:06am 18 21 mph 1003.4mb 66f 62f
2:00am 18 22 mph 1003.3mb 66f 62f
1:54am 20 23 mph 1003.5mb 66f 62f
1:48am 18 23 mph 1003.6mb 66f 62f
1:42am 20 22 mph 1003.7mb 66f 61f
1:36am 16 20 mph 1003.9mb 66f 62f
1:30am 17 22 mph 1003.9mb 66f 62f
1:24am 20 22 mph 1003.6mb 66f 61f
1:18am 17 22 mph 1003.6mb 65f 61f
1:12am 20 25 mph 1003.5mb 64f 62f
1:06am 22 25 mph 1003.5mb 64f 61f
1:00am 22 26 mph 1003.2mb 64f 61f
12:54am 23 28 mph 1002.8mb 64f 61f
12:48am 18 22 mph 1003.6mb 64f 61f
12:42am 22 25 mph 1003.6mb 64f 61f
12:36am 20 22 mph 1003.9mb 64f 61f
12:30am 21 23 mph 1003.9mb 64f 61f
12:24am 22 25 mph 1003.9mb 64f 61f
12:18am 17 23 mph 1004mb 64f 61f
12:12am 17 24 mph 1004.2mb 64f 61f
12:06am 22 25 mph 1003.8mb 64f 61f
12:00am 23 26 mph 1004.1mb 64f 61f
Tue 05/23 11:54pm 22 25 mph 1003.9mb 64f 61f
11:48pm 22 24 mph 1003.9mb 63f 61f
11:42pm 21 26 mph 1004mb 63f 61f
11:36pm 23 26 mph 1004mb 63f 61f
11:30pm 24 28 mph 1003.9mb 63f 61f
11:24pm 25 29 mph 1003.6mb 63f 61f
11:18pm 24 29 mph 1003.5mb 63f 61f
11:12pm 22 32 mph 1003.4mb 63f 61f
11:06pm 28 33 mph 1003.3mb 63f 61f
11:00pm 25 30 mph 1003.5mb 63f 61f
10:54pm 30 36 mph 1003.6mb 63f 61f
10:48pm 30 34 mph 1003.5mb 63f 61f
10:42pm 24 36 mph 1003.9mb 63f 61f
10:36pm 32 36 mph 1003.6mb 63f 61f
10:30pm 17 29 mph 1004.3mb 63f 61f
10:24pm 29 32 mph 1004.3mb 63f 61f
10:18pm 23 29 mph 1004.5mb 64f 61f
10:12pm 28 31 mph 1004.5mb 64f 61f
10:06pm 25 31 mph 1004.4mb 64f 61f
10:00pm 24 30 mph 1004.7mb 64f 61f
9:54pm 22 29 mph 1004.5mb 64f 61f
9:48pm 22 28 mph 1004.7mb 64f 61f
9:42pm 23 26 mph 1004.7mb 64f 61f
9:36pm 23 26 mph 1004.7mb 64f 61f
9:30pm 22 26 mph 1005mb 64f 61f
9:24pm 22 26 mph 1005.1mb 64f 61f
9:18pm 20 23 mph 1005.3mb 64f 61f
9:12pm 21 23 mph 1005.4mb 64f 61f
9:06pm 18 22 mph 1005.7mb 64f 61f
9:00pm 21 23 mph 1005.5mb 64f 61f
8:54pm 20 23 mph 1005.7mb 64f 61f
8:48pm 18 22 mph 1005.9mb 64f 62f
8:42pm 20 23 mph 1006.1mb 64f 61f
8:36pm 20 22 mph 1006mb 64f 61f
8:30pm 20 22 mph 1006mb 64f 62f
8:24pm 20 23 mph 1006.1mb 65f 62f
8:18pm 18 21 mph 1006.2mb 64f 61f
8:12pm 20 22 mph 1006.3mb 64f 62f
8:06pm 18 22 mph 1006.3mb 64f 62f
8:00pm 18 21 mph 1006.3mb 64f 61f
7:54pm 18 21 mph 1006.4mb 65f 62f
7:48pm 18 22 mph 1006.5mb 65f 62f
7:42pm 20 24 mph 1006.3mb 66f 61f
7:36pm 22 24 mph 1006.2mb 66f 61f
7:30pm 20 25 mph 1006.2mb 66f 62f
7:24pm 22 24 mph 1006.3mb 66f 61f
7:18pm 21 25 mph 1006.5mb 66f 62f
7:12pm 22 24 mph 1006.4mb 66f 62f
7:06pm 22 24 mph 1006.4mb 66f 62f
7:00pm 22 24 mph 1006.3mb 66f 61f
6:54pm 21 22 mph 1006.9mb 66f 61f
6:48pm 20 23 mph 1007mb 67f 62f
6:42pm 21 23 mph 1006.9mb 66f 61f
6:36pm 22 23 mph 1006.9mb 66f 61f
6:30pm 22 23 mph 1007.1mb 66f 61f
6:24pm 21 22 mph 1007.3mb 67f 61f
6:18pm 21 23 mph 1007.2mb 66f 61f
6:12pm 20 24 mph 1007.1mb 66f 61f
6:06pm 21 24 mph 1007mb 67f 61f
6:00pm 21 25 mph 1007mb 66f 61f
5:54pm 22 24 mph 1007mb 66f 61f
5:48pm 23 25 mph 1007.1mb 67f 61f
5:42pm 25 26 mph 1007.1mb 67f 61f
5:36pm 23 26 mph 1007.1mb 67f 61f
5:30pm 23 26 mph 1007.1mb 67f 61f
5:24pm 23 26 mph 1007.3mb 67f 61f
5:18pm 24 28 mph 1007.3mb 66f 61f
5:12pm 23 28 mph 1007.3mb 67f 61f
5:06pm 24 26 mph 1007.4mb 66f 61f
5:00pm 23 26 mph 1007.4mb 66f 61f
4:54pm 23 28 mph 1007.6mb 66f 61f
4:48pm 25 26 mph 1007.6mb 66f 61f
4:42pm 25 26 mph 1007.8mb 66f 61f
4:36pm 24 26 mph 1007.8mb 67f 61f
4:30pm 23 25 mph 1007.9mb 67f 61f
4:24pm 23 26 mph 1008.1mb 67f 61f
4:18pm 24 28 mph 1008.1mb 67f 61f
4:12pm 24 26 mph 1008.3mb 67f 61f
4:06pm 23 25 mph 1008.4mb 67f 61f
4:00pm 22 26 mph 1008.6mb 67f 62f
3:54pm 23 26 mph 1008.6mb 67f 61f
3:48pm 25 28 mph 1008.7mb 67f 61f
3:42pm 24 29 mph 1008.5mb 67f 61f
3:36pm 24 28 mph 1008.5mb 67f 61f
3:30pm 25 29 mph 1008.7mb 67f 62f
3:24pm 25 28 mph 1008.8mb 67f 61f
3:18pm 23 29 mph 1009mb 67f 62f
3:12pm 25 28 mph 1009mb 67f 62f
3:06pm 22 28 mph 1009.2mb 67f 62f
3:00pm 24 26 mph 1009.2mb 67f 62f
2:54pm 23 26 mph 1009.2mb 67f 62f
2:48pm 23 26 mph 1009.3mb 67f 62f
2:42pm 23 25 mph 1009.4mb 67f 62f
2:36pm 23 24 mph 1009.6mb 67f 62f
2:30pm 22 25 mph 1009.7mb 67f 62f
2:24pm 22 25 mph 1009.8mb 67f 62f
2:18pm 23 24 mph 1009.7mb 67f 62f
2:12pm 22 24 mph 1009.9mb 67f 62f
2:06pm 21 24 mph 1010.1mb 67f 62f
2:00pm 23 24 mph 1010.2mb 67f 62f
1:54pm 21 23 mph 1010.4mb 67f 62f
1:48pm 21 24 mph 1010.4mb 67f 62f
1:42pm 22 24 mph 1010.6mb 67f 62f
1:36pm 21 23 mph 1010.8mb 67f 62f
1:30pm 21 23 mph 1011mb 67f 62f
1:24pm 21 22 mph 1011.1mb 67f 62f
1:18pm 18 22 mph 1011.3mb 67f 62f
1:12pm 20 22 mph 1011.4mb 67f 62f
1:06pm 20 22 mph 1011.5mb 67f 62f
1:00pm 18 22 mph 1011.5mb 67f 62f
12:54pm 18 21 mph 1011.6mb 67f 62f
12:48pm 18 23 mph 1011.6mb 67f 62f
12:42pm 20 21 mph 1011.7mb 67f 62f
12:36pm 18 21 mph 1011.7mb 67f 62f
12:30pm 18 22 mph 1011.8mb 67f 62f
12:24pm 17 20 mph 1011.9mb 67f 62f
12:18pm 17 21 mph 1012mb 67f 63f
12:12pm 17 20 mph 1012mb 67f 62f
12:06pm 18 20 mph 1012.2mb 67f 62f
12:00pm 17 18 mph 1012.2mb 67f 62f
11:54am 17 21 mph 1012.3mb 67f 62f
11:48am 18 21 mph 1012.3mb 67f 62f
11:42am 18 22 mph 1012.3mb 67f 62f
11:36am 20 21 mph 1012.3mb 67f 62f
11:30am 20 22 mph 1012.4mb 67f 62f
11:24am 21 22 mph 1012.4mb 67f 62f
11:18am 18 22 mph 1012.5mb 67f 62f
11:12am 20 23 mph 1012.6mb 67f 62f
11:06am 22 23 mph 1012.5mb 67f 62f
11:00am 21 23 mph 1012.5mb 67f 62f
10:54am 18 21 mph 1012.6mb 67f 63f
10:48am 20 22 mph 1012.6mb 67f 62f
10:42am 18 22 mph 1012.7mb 67f 63f
10:36am 21 22 mph 1012.6mb 66f 62f
10:30am 20 21 mph 1012.6mb 66f 63f
10:24am 18 21 mph 1012.7mb 66f 63f
10:18am 20 22 mph 1012.6mb 66f 63f
10:12am 16 18 mph 1012.6mb 66f 63f
10:06am 16 17 mph 1012.6mb 66f 63f
10:00am 14 16 mph 1012.7mb 66f 63f
9:54am 14 17 mph 1012.8mb 67f 63f
9:48am 15 17 mph 1012.9mb 67f 63f
9:42am 16 18 mph 1012.9mb 67f 63f
9:36am 15 17 mph 1012.9mb 67f 63f
9:30am 15 17 mph 1013mb 67f 64f
9:24am 18 21 mph 1012.9mb 67f 63f
9:18am 18 21 mph 1012.9mb 67f 64f
9:12am 20 22 mph 1012.8mb 67f 64f
9:06am 18 21 mph 1012.6mb 67f 64f
9:00am 17 20 mph 1012.6mb 67f 65f
8:54am 16 21 mph 1012.6mb 67f 65f
8:48am 18 21 mph 1012.6mb 67f 65f
8:42am 18 21 mph 1012.6mb 67f 65f
8:36am 18 21 mph 1012.6mb 67f 65f
8:30am 20 21 mph 1012.7mb 67f 65f
8:24am 21 22 mph 1012.7mb 67f 65f
8:18am 18 21 mph 1012.7mb 67f 66f
8:12am 16 20 mph 1012.8mb 67f 66f
8:06am 16 17 mph 1012.6mb 67f 66f
8:00am 13 15 mph 1012.6mb 67f 66f
7:54am 14 15 mph 1012.6mb 67f 66f
7:48am 14 15 mph 1012.6mb 67f 66f
7:42am 15 16 mph 1012.6mb 67f 66f
7:36am 15 17 mph 1012.6mb 67f 65f
7:30am 15 17 mph 1012.6mb 67f 66f
7:24am 16 18 mph 1012.5mb 67f 66f
7:18am 17 21 mph 1012.4mb 67f 65f
7:12am 17 20 mph 1012.6mb 67f 65f
7:06am 15 18 mph 1012.6mb 67f 65f
7:00am 13 17 mph 1012.7mb 67f 65f
6:54am 16 17 mph 1012.6mb 67f 65f
6:48am 15 17 mph 1012.6mb 67f 65f
6:42am 15 18 mph 1012.7mb 67f 65f
6:36am 16 18 mph 1012.6mb 67f 65f
6:30am 14 16 mph 1012.7mb 67f 65f
6:24am 13 15 mph 1012.7mb 67f 65f
6:18am 14 16 mph 1012.9mb 67f 65f
6:12am 14 17 mph 1012.8mb 67f 65f
6:06am 16 17 mph 1012.7mb 67f 65f
6:00am 15 16 mph 1012.6mb 67f 65f
5:54am 15 17 mph 1012.7mb 67f 65f
5:48am 15 16 mph 1012.8mb 67f 65f
5:42am 14 15 mph 1012.9mb 67f 65f
5:36am 14 15 mph 1012.9mb 67f 65f
5:30am 15 16 mph 1012.7mb 67f 65f
5:24am 13 14 mph 1012.7mb 67f 65f
5:18am 14 15 mph 1012.6mb 67f 65f
5:12am 11 14 mph 1012.5mb 67f 65f
5:06am 13 14 mph 1012.5mb 67f 65f
5:00am 11 13 mph 1012.4mb 67f 66f
4:54am 10 13 mph 1012.4mb 67f 66f
4:48am 11 13 mph 1012.3mb 67f 66f
4:42am 10 11 mph 1012.3mb 67f 66f
4:36am 10 13 mph 1012.2mb 67f 66f
4:30am 10 10 mph 1012.3mb 67f 67f
4:24am 10 10 mph 1012.4mb 68f 67f
4:18am 9 10 mph 1012.5mb 67f 67f
4:12am 7 7 mph 1012.8mb 68f 67f
4:06am 7 8 mph 1012.8mb 68f 67f
4:00am 7 7 mph 1012.8mb 68f 67f
3:54am 7 8 mph 1012.6mb 68f 67f
3:48am 7 8 mph 1012.5mb 68f 67f
3:42am 7 7 mph 1012.7mb 68f 67f
3:36am 6 6 mph 1012.8mb 68f 67f
3:30am 6 6 mph 1012.9mb 68f 67f
3:24am 6 6 mph 1012.9mb 68f 68f
3:18am 6 6 mph 1013mb 68f 67f
3:12am 5 5 mph 1012.9mb 68f 68f
3:06am 3 3 mph 1012.9mb 68f 67f
3:00am 2 3 mph 1012.9mb 68f 67f
2:54am 2 3 mph 1012.8mb 68f 67f
2:48am 2 3 mph 1012.8mb 68f -
2:42am 2 3 mph 1012.8mb 68f -
2:36am 3 3 mph 1012.8mb 68f -
2:30am 2 3 mph 1012.8mb 68f 67f
2:24am 3 5 mph 1012.9mb 68f 67f
2:18am 5 6 mph 1012.9mb 68f 68f
2:12am 5 5 mph 1013.1mb 68f 67f
2:06am 5 5 mph 1013.1mb 68f 68f
2:00am 3 5 mph 1013.1mb 68f 68f
1:54am 5 6 mph 1013.3mb 68f 68f
1:48am 6 6 mph 1013.4mb 68f 68f
1:42am 6 6 mph 1013.3mb 68f 68f
1:36am 5 5 mph 1013.3mb 68f 68f
1:30am 5 6 mph 1013.4mb 68f 68f
1:24am 6 6 mph 1013.5mb 68f 68f